Weather observations for the past three days for
Marshall County Airport
Imperial (Metric)
Date Time (cdt) Wind (mph) Vis. (mi.) Weather Sky Cond. Temperature (ºF) Relative Humidity Wind Chill (°F) Heat Index (°F) Pressure Precipitation (in)
Air Dwpt 6 hour altimeter (in) sea level (mb) 1 hr 3 hr 6 hr
Max. Min.
15 20:15 Calm 10.00 Thunderstorm in Vicinity CLR 86.4 77.4 75% 98 29.69 0.0
15 19:55 Calm 10.00 Thunderstorm in Vicinity CLR 86.2 77.9 76% 99 29.69 0.0
15 19:35 Calm 10.00 Fair CLR 86 77.9 77% 98 29.7 0.0
15 19:15 Calm 10.00 Fair CLR 86.7 78.1 76% 100 29.68 0.0
15 18:55 Calm 10.00 Fair CLR 86.9 78.3 90.9 86.9 76% 100 29.68 0.0
15 18:35 Calm 10.00 Fair CLR 87.4 78.3 74% 101 29.71 0.0
15 18:15 Calm 10.00 Fair CLR 88.5 77.9 71% 102 29.7 0.0
15 17:55 Calm 10.00 Fair CLR 89.6 78.1 69% 104 29.7 0.0
15 17:35 Calm 10.00 Fair CLR 90 78.3 69% 105 29.7 0.0
15 17:15 Calm 10.00 Partly Cloudy SCT028 SCT035 90.1 78.6 69% 106 29.72 0.0
15 16:55 Calm 10.00 Partly Cloudy SCT028 SCT035 90.3 79.2 70% 107 29.73 0.0
15 16:35 Calm 10.00 Partly Cloudy SCT028 SCT035 90.5 79 69% 107 29.75 0.0
15 16:15 Calm 10.00 Mostly Cloudy SCT028 BKN035 89.1 78.8 72% 104 29.76 0.0
15 15:50 Calm 10.00 Mostly Cloudy SCT028 BKN035 88.9 79 73% 104 29.77 0.0
15 15:35 Calm 10.00 Mostly Cloudy SCT026 BKN035 BKN042 89.4 78.6 71% 105 29.77 0.0
15 15:15 Calm 10.00 Partly Cloudy SCT024 SCT035 90.1 79.2 70% 106 29.78 0.0
15 14:55 Calm 10.00 Partly Cloudy SCT024 SCT039 90.5 78.1 67% 105 29.8 0.0
15 14:40 Calm 10.00 Partly Cloudy SCT039 90.5 76.5 63% 103 29.82 0.0
15 14:10 Calm 10.00 Fair CLR 89.8 76.3 65% 102 29.82 0.0
15 13:55 Calm 10.00 Partly Cloudy SCT030 89.6 77 67% 103 29.82 0.0
15 13:35 Calm 10.00 Partly Cloudy SCT030 88.5 77.2 69% 101 29.83 0.0
15 13:15 Calm 10.00 Fair CLR 87.8 76.8 70% 100 29.84 0.0
15 12:55 Calm 10.00 Fair CLR 87.3 77 87.3 71.6 72% 99 29.84 0.0
15 12:35 Calm 10.00 Fair CLR 86.7 76.6 72% 98 29.85 0.0
15 12:15 Calm 10.00 Fair CLR 86.2 76.5 73% 97 29.85 0.0
15 11:55 Calm 10.00 Fair CLR 85.1 75.9 74% 95 29.86 0.0
15 11:35 Calm 10.00 Fair CLR 84.2 76.1 77% 93 29.86 0.0
15 11:15 Calm 10.00 Fair CLR 83.8 75.7 77% 92 29.87 0.0
15 10:55 Calm 10.00 Fair CLR 82.8 75.4 78% 90 29.87 0.0
15 10:35 Calm 10.00 Fair CLR 81.9 75 80% 88 29.87 0.0
15 10:15 Calm 10.00 Fair CLR 80.8 73.8 79% 86 29.87 0.0
15 09:55 Calm 10.00 Fair CLR 79.7 73.4 81% 84 29.86 0.0
15 09:35 Calm 10.00 Fair CLR 79.3 73.2 82% 83 29.86 0.0
15 09:15 Calm 10.00 Fair CLR 78.4 72.7 83% 81 29.86 0.0
15 08:55 Calm 10.00 Fair CLR 77.9 72.1 83% 80 29.86 0.0
15 08:35 Calm 10.00 Fair CLR 77 71.8 84% 78 29.87 0.0
15 08:20 Calm 10.00 Fair CLR 76.5 71.6 85% 77 29.86 0.0
15 07:55 Calm 10.00 Partly Cloudy SCT017 75.6 72.5 90% 75 29.86 0.0
15 07:35 Calm 10.00 Mostly Cloudy BKN017 74.3 71.8 92% 29.87 0.0
15 07:15 Calm 10.00 Partly Cloudy SCT017 72.9 70.9 94% 29.87 0.0
15 06:55 Calm 10.00 Fair CLR 71.2 69.4 71.2 67.6 94% 29.87 0.0 0.01
15 06:35 Calm 10.00 Partly Cloudy SCT018 70 68.2 94% 29.87 0.0
15 06:15 Calm 10.00 Fair CLR 68.9 67.3 95% 29.87 0.0
15 05:55 Calm 10.00 Fair CLR 68 66.2 94% 29.87 0.0
15 05:35 Calm 10.00 Fair CLR 67.6 65.7 93% 29.86 0.0
15 05:15 Calm 10.00 Fair CLR 67.6 65.5 93% 29.86 0.0
15 04:55 Calm 10.00 Fair CLR 68 65.7 92% 29.86 0.0
15 04:35 Calm 10.00 Fair CLR 68.2 65.7 92% 29.87 0.0
15 04:15 Calm 10.00 Fair CLR 68.4 65.5 91% 29.87 0.0
15 03:55 Calm 10.00 Fair CLR 68.2 65.3 91% 29.87 0.0 0.01
15 03:35 Calm 10.00 Fair CLR 68 64.9 90% 29.87 0.0
15 03:15 Calm 10.00 Fair CLR 67.6 64.9 91% 29.87 0.0
15 02:55 Calm 10.00 Fair CLR 68 64.9 90% 29.87 0.0
15 02:35 Calm 10.00 Fair CLR 68.2 64.8 89% 29.88 0.0
15 02:15 Calm 10.00 Partly Cloudy SCT050 68 64 87% 29.87 0.0
15 01:55 Calm 10.00 Mostly Cloudy BKN055 BKN110 68.4 64.2 87% 29.87 0.0 0.01
15 01:35 Calm 10.00 Partly Cloudy SCT120 68.7 65.7 90% 29.91 0.0 0.01
15 01:15 Calm 10.00 Light Rain SCT075 BKN100 BKN120 68.9 65.7 89% 29.9 0.0 0.01
15 00:50 Calm 10.00 Thunderstorm Heavy Rain SCT023 SCT055 OVC100 68.2 64.8 86.9 67.6 89% 29.93 0.0 0.46 0.5
15 00:35 Calm 10.00 Overcast SCT024 BKN041 OVC110 67.6 64.6 90% 29.9 0.0 0.41
15 00:15 Calm 5.00 Overcast SCT027 BKN042 OVC070 68.5 64.4 87% 29.92 0.0 0.21
14 23:55 Calm 4.00 Rain NULL 70.5 64.4 81% 29.93 0.0 0.04
14 23:35 Calm 10.00 Thunderstorm SCT045 BKN060 BKN090 82.9 74.7 76% 90 29.84 0.0
14 23:15 Calm 10.00 Thunderstorm in Vicinity CLR 83.1 74.5 75% 90 29.85 0.0
14 22:55 Calm 10.00 Partly Cloudy SCT047 SCT055 83.3 74.7 75% 91 29.83 0.0
14 22:35 Calm 10.00 Partly Cloudy SCT049 SCT055 83.5 74.7 75% 91 29.83 0.0
14 22:15 Calm 10.00 Fair CLR 83.7 74.5 74% 91 29.83 0.0
14 21:55 Calm 10.00 Fair CLR 83.8 74.7 74% 91 29.84 0.0
14 21:40 Calm 10.00 Fair CLR 83.5 74.7 75% 91 29.84 0.0
14 21:15 Calm 10.00 Fair CLR 83.3 74.3 74% 90 29.82 0.0
14 20:55 Calm 10.00 Fair CLR 82.9 73.6 73% 89 29.83 0.0
14 20:35 Calm 10.00 Fair CLR 83.3 73.4 72% 90 29.84 0.0
14 20:15 Calm 10.00 Fair CLR 83.8 73 70% 90 29.84 0.0
14 19:55 Calm 10.00 Fair CLR 84.4 73.4 70% 91 29.85 0.0
14 19:35 Calm 10.00 Fair CLR 85.8 73.4 67% 93 29.85 0.0
14 19:15 Calm 10.00 Fair CLR 86.9 74.7 67% 96 29.86 0.0
14 18:55 Calm 10.00 Partly Cloudy SCT038 86.4 74.3 88.7 83.1 67% 95 29.87 0.0
14 18:35 Calm 10.00 Partly Cloudy SCT038 87.8 75 66% 98 29.88 0.0
14 18:15 Calm 10.00 Fair CLR 87.4 75.2 67% 97 29.88 0.0
14 17:55 Calm 10.00 Fair CLR 88 75.2 66% 98 29.88 0.0
14 17:35 Calm 10.00 Fair CLR 88.3 75.2 65% 98 29.88 0.0
14 17:15 Calm 10.00 Fair CLR 88.7 75.2 64% 99 29.88 0.0
14 16:55 Calm 10.00 Fair CLR 88.3 74.5 64% 98 29.89 0.0
14 16:35 Calm 10.00 Fair CLR 88.2 73.9 63% 97 29.89 0.0
14 16:15 Calm 10.00 Fair CLR 88.5 74.1 63% 98 29.89 0.0
14 16:00 Calm 10.00 Fair CLR 88.2 73.4 62% 96 29.89 0.0
14 15:35 Calm 10.00 Fair CLR 87.8 72.5 61% 95 29.9 0.0
14 15:15 Calm 10.00 Fair CLR 87.8 73.2 62% 96 29.91 0.0
14 15:00 Calm 10.00 Fair CLR 87.8 73 62% 95 29.91 0.0
14 14:35 Calm 10.00 Fair CLR 87.1 72.3 62% 94 29.92 0.0
14 14:15 Calm 10.00 Fair CLR 86.7 71.1 60% 92 29.93 0.0
14 13:55 Calm 10.00 Fair CLR 85.8 70.3 60% 91 29.93 0.0
14 13:35 Calm 10.00 Fair CLR 84.7 70.2 62% 89 29.94 0.0
14 13:15 Calm 10.00 Fair CLR 84 69.6 62% 88 29.95 0.0
14 12:55 Calm 10.00 Fair CLR 83.3 68.2 83.5 68 60% 86 29.96 0.0 0.06
14 12:35 Calm 10.00 Fair CLR 82.6 69.4 65% 86 29.97 0.0
14 12:15 Calm 10.00 Fair CLR 80.1 68.7 68% 83 29.97 0.0
14 12:00 Calm 10.00 Fair CLR 78.6 68.5 71% 81 29.98 0.0
14 11:40 Calm 10.00 Fair CLR 76.3 68.5 77% 78 30 0.0
14 11:15 Calm 10.00 Fair CLR 73.6 66.9 80% 30 0.0
14 10:55 Calm 10.00 Partly Cloudy SCT110 71.6 65.8 82% 29.99 0.0
14 10:35 Calm 10.00 Thunderstorm in Vicinity SCT110 70.2 65.7 86% 30.01 0.0
14 10:15 Calm 10.00 Light Rain SCT047 SCT070 BKN110 68.4 65.1 89% 30.03 0.0
14 09:55 Calm 10.00 Thunderstorm Light Rain in Vicinity SCT049 SCT070 OVC090 68.2 64.4 88% 30.06 0.0 0.06 0.06
14 09:35 Calm 10.00 Light Rain SCT044 SCT070 OVC090 68.9 64.4 86% 30.09 0.0 0.05
14 09:20 Calm 3.00 Thunderstorm Rain in Vicinity SCT042 BKN055 OVC090 70 63.5 80% 30.09 0.0 0.04
14 08:55 Calm 10.00 Thunderstorm in Vicinity SCT028 BKN041 OVC100 73.8 64.4 73% 30.1 0.0
14 08:35 Calm 10.00 Thunderstorm in Vicinity SCT042 SCT070 OVC085 78.1 70.9 79% 80 30.05 0.0
14 08:15 Calm 10.00 Thunderstorm in Vicinity BKN085 78.8 70.9 77% 82 30.02 0.0
14 07:55 Calm 10.00 Fair CLR 77.9 71.1 80% 80 30 0.0
14 07:35 Calm 10.00 Fair CLR 77 70.7 81% 79 29.99 0.0
14 07:15 Calm 10.00 Fair CLR 75.6 70.2 83% 76 29.99 0.0
14 07:00 Calm 10.00 Fair CLR 75.2 70.2 84% 75 29.99 0.0
14 06:35 Calm 10.00 Fair CLR 74.7 70.2 86% 30 0.0
14 06:15 Calm 10.00 Fair CLR 73.8 69.8 88% 30 0.0
14 05:55 Calm 10.00 Fair CLR 73.4 69.1 86% 29.99 0.0
14 05:35 Calm 10.00 Fair CLR 73.2 68.5 85% 29.99 0.0
14 05:20 Calm 10.00 Fair CLR 72.9 68.5 86% 29.98 0.0
14 04:55 Calm 10.00 Partly Cloudy SCT055 73.6 68.5 84% 29.98 0.0
14 04:35 Calm 10.00 Partly Cloudy SCT060 74.3 68.9 83% 29.98 0.0
14 04:15 Calm 10.00 Mostly Cloudy BKN060 74.3 68.9 83% 29.99 0.0
14 03:55 Calm 10.00 Mostly Cloudy BKN060 74.8 69.1 82% 29.99 0.0
14 03:35 Calm 10.00 Partly Cloudy SCT060 74.7 68.9 82% 29.99 0.0
14 03:19 Calm 10.00 Fair CLR 75.2 69.8 83% 75 30 0.0
14 02:55 Calm 10.00 Partly Cloudy SCT047 SCT065 75.6 68.9 80% 76 30.01 0.0
14 02:35 Calm 10.00 Fair CLR 76.1 68.9 78% 77 30.02 0.0
14 02:10 Calm 10.00 Fair CLR 76.1 68.9 78% 77 30.03 0.0
14 01:55 Calm 10.00 Fair CLR 77 68.9 76% 79 30.04 0.0
14 01:35 Calm 10.00 Fair CLR 77.4 69.4 77% 79 30.05 0.0
14 01:15 Calm 10.00 Fair CLR 75.9 69.1 79% 77 30.03 0.0
14 01:00 Calm 10.00 Fair CLR 76.1 68.7 78% 77 30.03 0.0
14 00:35 Calm 10.00 Fair CLR 76.8 68.4 75% 78 30.04 0.0
14 00:15 Calm 10.00 Fair CLR 78.1 68.4 72% 80 30.05 0.0
13 23:55 Calm 10.00 Fair CLR 79 68.2 70% 81 30.05 0.0
13 23:35 Calm 10.00 Fair CLR 79.5 68.4 69% 82 30.04 0.0
13 23:15 Calm 10.00 Fair CLR 80.1 68.4 68% 83 30.04 0.0
13 22:55 Calm 10.00 Fair CLR 79.9 69.1 70% 83 30.03 0.0
13 22:35 Calm 10.00 Fair CLR 80.4 69.1 68% 83 30.04 0.0
13 22:15 Calm 10.00 Fair CLR 80.4 69.8 70% 84 30.04 0.0
13 21:55 Calm 10.00 Fair CLR 80.8 70.2 70% 84 30.04 0.0
13 21:35 Calm 10.00 Fair CLR 81.5 70.7 70% 85 30.03 0.0
13 21:15 Calm 10.00 Fair CLR 81.3 71.8 73% 86 30.02 0.0
13 20:55 Calm 10.00 Fair CLR 81.5 72 73% 86 30.01 0.0
13 20:35 Calm 10.00 Fair CLR 82.6 72.5 72% 88 30.03 0.0
13 20:15 Calm 10.00 Fair CLR 82.9 73.4 73% 89 30.02 0.0
13 20:00 Calm 10.00 Fair CLR 83.7 73.4 71% 90 30.02 0.0
13 19:35 Calm 10.00 Fair CLR 84.9 73.4 68% 92 30.02 0.0
13 19:15 Calm 10.00 Fair CLR 86 73.8 67% 94 30.03 0.0
13 18:55 Calm 10.00 Fair CLR 86.7 74.1 89.6 85.5 66% 95 30.03 0.0
13 18:35 Calm 10.00 Fair CLR 87.3 74.1 65% 96 30.03 0.0
13 18:15 Calm 10.00 Partly Cloudy SCT038 SCT080 88.2 74.7 64% 98 30.03 0.0
13 17:55 Calm 10.00 Partly Cloudy SCT038 SCT080 87.8 73.9 64% 96 30.03 0.0
13 17:40 Calm 10.00 Partly Cloudy SCT046 87.1 73.2 64% 95 30.03 0.0
13 17:20 Calm 10.00 Partly Cloudy SCT046 89.6 73.4 59% 98 30.03 0.0
13 16:55 Calm 10.00 Partly Cloudy SCT040 SCT050 SCT055 89.1 73 59% 97 30.03 0.0
13 16:35 Calm 10.00 Mostly Cloudy SCT042 SCT050 BKN070 88.7 72.1 58% 96 30.04 0.0
13 16:15 Calm 10.00 Partly Cloudy SCT043 SCT060 88.7 73.4 61% 97 30.05 0.0
13 15:55 Calm 10.00 Fair CLR 88.2 73.9 63% 97 30.05 0.0
13 15:35 Calm 10.00 Fair CLR 88 73.2 62% 96 30.05 0.0
13 15:20 Calm 10.00 Partly Cloudy SCT046 SCT050 SCT070 89.1 73.4 60% 97 30.06 0.0
13 14:55 Calm 10.00 Mostly Cloudy SCT040 BKN048 BKN090 87.8 73.6 63% 96 30.07 0.0
13 14:35 Calm 10.00 Partly Cloudy SCT035 SCT046 SCT065 88 72.9 61% 96 30.08 0.0
13 14:15 Calm 10.00 Mostly Cloudy SCT037 SCT060 BKN075 87.3 73.6 64% 95 30.08 0.0
13 14:00 Calm 10.00 Mostly Cloudy SCT035 SCT060 BKN090 86.4 72.3 63% 93 30.08 0.0
13 13:35 Calm 10.00 Partly Cloudy SCT035 SCT040 87.3 72.7 62% 94 30.09 0.0
13 13:15 Calm 10.00 Partly Cloudy SCT035 87.3 73.2 63% 95 30.09 0.0
13 12:55 Calm 10.00 Fair CLR 86.9 71.8 87.3 71.4 61% 93 30.09 0.0
13 12:40 Calm 10.00 Fair CLR 87.3 73 63% 95 30.1 0.0
13 12:15 Calm 10.00 Fair CLR 86.5 72.3 63% 93 30.11 0.0
13 11:55 Calm 10.00 Fair CLR 85.5 71.8 64% 91 30.12 0.0
Date Time (cdt) Wind (mph) Vis. (mi.) Weather Sky Cond. Air Dwpt Max. Min. Relative Humidity Wind Chill (°F) Heat Index (°F) altimeter (in) sea level (mb) 1 hr 3 hr 6 hr
6 hour
Temperature (ºF) Pressure Precipitation (in)